Location: Emblem
(62.4273°N, 6.4710°E)
Time: 20:13:13
(UTC+02:00)

Vanguard 2 - Pass Details

Date: 07 February 2023
Orbit: 553 x 2927 km, 32.9° (Epoch: 27 March)

Event Time Altitude Azimuth Distance (km) Brightness Sun altitude
Rises 20:56:23 0° 196° (SSW) 5,218 11.7 -28.0°
Reaches altitude 10° 21:02:38 10° 171° (S) 4,761 11.2 -28.7°
Enters shadow 21:03:06 11° 169° (S) 4,755 11.2 -28.7°
Maximum altitude 21:07:37 13° 150° (SSE) 4,878 - -29.2°
Drops below altitude 10° 21:13:09 10° 129° (SE) 5,422 - -29.8°
Sets 21:21:37 0° 107° (ESE) 6,726 - -30.6°
